Location: Houhaj�rvi
(61.2667°N, 23.0167°E)
Time: 18:26:02
(UTC+00:00)

Nadezhda 4 Rocket - Pass Details

Date: 13 December 2019
Orbit: 949 x 993 km, 82.9° (Epoch: 16 January)

Event Time Altitude Azimuth Distance (km) Brightness Sun altitude
Rises 15:17:31 0° 173° (S) 3,700 7.3 -12.8°
Reaches altitude 10° 15:20:05 10° 169° (S) 2,753 6.5 -13.1°
Maximum altitude 15:26:13 56° 94° (E) 1,165 4.1 -13.8°
Drops below altitude 10° 15:32:21 10° 18° (NNE) 2,747 6.0 -14.5°
Enters shadow 15:34:27 - 15° (NNE) 3,523 6.6 -14.7°
